[[{"header":{"parameterUnit":"m.s-1","parameterCategory":1,"la1":30.2991,"la2":30.254,"lo1":-89.0895,"lo2":-89.0444,"dy":0.0017,"dx":0.0017,"nx":28,"ny":28,"refTime":"2024-05-12T03:00:00:Z","depth":0,"parameterNumber":2,"parameterNumberName":"U-component_of_WINDS"},"data":[0,0,0,0,0,0,0,0,0,0,0,0,0,0,0,0,0,0,0,0,0,0,0,0,0,0,0,0,0,0,0,0,0,0,0,0,0,0,0,0,0,0,0,0,0,0,0,0,0,0,0,0,0,0,0,0,0,0,-5.6491,-5.6491,0,-5.6498,-5.6499,-5.6499,-5.6405,-5.6402,-5.64,-5.6397,-5.6404,-5.6406,-5.6409,0,0,0,0,0,0,0,0,0,0,0,0,0,-5.6396,-5.6398,-5.6491,-5.6491,-5.6491,-5.6498,-5.6499,-5.6499,-5.6405,-5.6402,-5.6399,-5.6396,-5.6403,-5.6406,-5.6409,0,0,0,0,0,0,0,0,0,0,0,0,0,-5.6424,-5.6399,-5.6491,-5.6445,-5.6441,-5.6498,-5.6499,-5.6499,-5.6406,-5.6402,-5.6398,-5.6395,-5.6402,-5.6406,-5.6409,-5.651,0,0,-5.6421,-5.6423,0,0,0,0,0,0,0,0,-5.6422,-5.6427,-5.6452,-5.6449,-5.6444,-5.6447,-5.6467,-5.6502,-5.6407,-5.642,-5.6397,-5.6393,-5.6421,-5.6423,-5.6433,-5.651,-5.651,-5.6422,-5.6424,-5.6425,-5.6427,0,0,0,0,0,0,0,-5.642,-5.6426,-5.6494,-5.6453,-5.6448,-5.6425,-5.6425,-5.6474,-5.6442,-5.6418,-5.6411,-5.6414,-5.6418,-5.643,-5.6432,-5.651,-5.6421,-5.6425,-5.6427,-5.6429,-5.6671,-5.6674,0,0,0,0,0,0,-5.6425,-5.6425,-5.6493,-5.6494,-5.6424,-5.643,-5.6429,-5.645,-5.6441,-5.6436,-5.6417,-5.6409,-5.6425,-5.6428,-5.6432,-5.6547,-5.6425,-5.6429,-5.6431,-5.6666,-5.6671,-5.6676,0,0,0,0,0,0,-5.6423,-5.6432,-5.6493,-5.6458,-5.6464,-5.6435,-5.6459,-5.6452,-5.6463,-5.644,-5.6434,-5.6434,-5.6422,-5.6427,-5.6491,-5.6546,-5.6431,-5.6434,-5.6662,-5.6668,-5.6674,-5.678,0,0,0,0,0,0,-5.6421,-5.6432,-5.6469,-5.646,-5.6466,-5.6552,-5.6463,-5.6455,-5.647,-5.646,-5.6454,-5.645,-5.6419,-5.6486,-5.6495,-5.655,-5.6437,-5.6656,-5.6664,-5.6672,-5.6771,-5.6789,-5.6804,0,0,0,0,0,-5.6418,-5.6498,-5.6471,-5.648,-5.6512,-5.6555,-5.6559,-5.6523,-5.6475,-5.6512,-5.6498,-5.645,-5.6541,-5.6493,-5.6503,-5.6559,-5.6653,-5.6662,-5.6671,-5.6764,-5.6786,-5.6804,0,0,0,0,0,0,-5.6513,-5.6496,-5.6466,-5.6546,-5.6553,-5.6539,-5.6584,-5.6547,-5.6567,-5.6557,-5.6511,-5.6511,-5.6582,-5.6578,-5.6526,-5.6656,-5.6588,-5.66,-5.6655,-5.6676,-5.6692,-5.6689,-5.644,0,0,0,0,0,-5.6544,-5.6581,-5.6564,-5.6636,-5.6641,-5.6613,-5.663,-5.6603,-5.6608,-5.661,-5.66,-5.6607,-5.6636,-5.6657,-5.6683,-5.6773,-5.6769,-5.6816,-5.6833,-5.6847,-5.6855,-5.6902,-5.6922,-5.6706,-5.6706,-5.6706,0,0,-5.6607,-5.6602,-5.6627,-5.6655,-5.6657,-5.6695,-5.6616,-5.666,-5.6688,-5.6616,-5.6675,-5.667,-5.6674,-5.6752,-5.6785,-5.675,-5.6915,-5.6858,-5.6869,-5.6871,-5.6913,-5.6934,-5.6952,-5.6713,-5.6712,-5.6711,0,0,-5.674,-5.6741,-5.6801,-5.6806,-5.6811,-5.6792,-5.6807,-5.6801,-5.6794,-5.6854,-5.6801,-5.6835,-5.6887,-5.6892,-5.6902,-5.7043,-5.6998,-5.7053,-5.7137,-5.7182,-5.7199,-5.7214,-5.7262,-5.728,-5.7063,-5.7063,-5.7064,0,-5.6816,-5.6872,-5.6836,-5.6884,-5.6897,-5.6838,-5.6897,-5.6904,-5.6917,-5.6928,-5.689,-5.6955,-5.6954,-5.7031,-5.7066,-5.7077,-5.7091,-5.705,-5.72,-5.7215,-5.7228,-5.7272,-5.7291,-5.707,-5.7069,-5.7068,-5.7068,0,-5.6966,-5.7006,-5.7054,-5.7069,-5.7089,-5.7143,-5.7115,-5.7139,-5.7112,-5.7098,-5.716,-5.7158,-5.7182,-5.72,-5.7172,-5.7274,-5.7251,-5.7208,-5.7137,-5.7255,-5.7296,-5.7313,-5.7079,-5.7076,-5.7074,-5.7073,0,0,-5.7153,-5.7151,-5.7169,-5.7175,-5.7179,-5.7209,-5.7262,-5.7287,-5.7308,-5.7321,-5.7362,-5.7411,-5.7371,-5.7382,-5.7356,-5.7397,-5.7506,-5.7348,-5.7347,-5.7374,-5.7615,-5.7645,-5.7666,-5.748,-5.7483,-5.7485,-5.7614,0,-5.728,-5.7368,-5.7339,-5.7428,-5.7464,-5.7411,-5.7456,-5.7464,-5.7453,-5.7483,-5.7472,-5.7505,-5.7451,-5.7458,-5.7496,-5.7484,-5.7553,-5.7476,-5.7515,-5.7517,-5.7511,-5.7687,-5.7719,-5.784,-5.763,-5.7633,-5.7635,0,-5.7438,-5.7459,-5.7552,-5.7551,-5.7565,-5.7606,-5.7627,-5.7657,-5.7665,-5.7655,-5.767,-5.7636,-5.7687,-5.7622,-5.7691,-5.7639,-5.7655,-5.7652,-5.7656,-5.7654,-5.758,-5.7687,-5.7878,-5.7894,-5.7661,-5.7659,-5.7657,0,-5.7562,-5.7613,-5.7675,-5.7683,-5.7684,-5.7714,-5.7716,-5.7721,-5.7738,-5.7758,-5.7769,-5.7795,-5.7808,-5.7829,-5.7803,-5.7758,-5.7876,-5.7808,-5.7867,-5.7868,-5.7889,-5.7887,-5.8081,-5.7908,-5.7908,-5.7907,-5.7907,0,-5.7704,-5.7762,-5.7731,-5.7768,-5.7833,-5.7801,-5.7865,-5.7861,-5.7866,-5.7902,-5.7859,-5.7894,-5.786,-5.7892,-5.7873,-5.7932,-5.7939,-5.7931,-5.7925,-5.7933,-5.7933,-5.7938,-5.7928,-5.7912,-5.7911,-5.791,-5.7909,0,-5.7849,-5.7831,-5.7895,-5.7893,-5.7893,-5.7941,-5.7938,-5.7973,-5.7962,-5.8008,-5.8017,-5.7999,-5.8035,-5.8013,-5.8049,-5.8036,-5.8113,-5.8097,-5.811,-5.8103,-5.8163,-5.8156,-5.8363,-5.8387,-5.8202,-5.8204,-5.8205,0,-5.7939,-5.7982,-5.7985,-5.8007,-5.8012,-5.8047,-5.8066,-5.8038,-5.8058,-5.8073,-5.8106,-5.8139,-5.8162,-5.8222,-5.8212,-5.8239,-5.8221,-5.8292,-5.8224,-5.8231,-5.8218,-5.8214,-5.8217,-5.8304,-5.8306,-5.8308,-5.8309,0,-5.8098,-5.8088,-5.8116,-5.8143,-5.8167,-5.8186,-5.8201,-5.8222,-5.8194,-5.822,-5.8256,-5.8275,-5.8313,-5.8345,-5.8369,-5.8371,-5.8335,-5.8332,-5.8346,-5.8352,-5.8356,-5.8352,-5.8142,-5.8325,-5.8324,-5.8323,-5.8322,-5.8321,-5.8216,-5.8252,-5.826,-5.8294,-5.8304,-5.832,-5.8353,-5.8347,-5.8377,-5.8406,-5.8388,-5.8431,-5.844,-5.8469,-5.8476,-5.8509,-5.848,-5.8502,-5.8506,-5.8511,-5.8518,-5.8356,-5.8514,-5.8513,-5.8513,-5.8513,-5.8512,0,-5.837,-5.8374,-5.8406,-5.8429,-5.8456,-5.8424,-5.8441,-5.8465,-5.8503,-5.8515,-5.8541,-5.8583,-5.8615,-5.861,-5.8639,-5.8666,-5.8651,-5.8674,-5.867,-5.867,-5.8544,-5.8526,-5.8687,-5.8687,-5.8686,-5.8686,-5.8686,-5.8686,-5.8453,-5.8512,-5.8504,-5.8569,-5.8572,-5.8614,-5.8626,-5.8641,-5.8651,-5.87,-5.8727,-5.8724,-5.8729,-5.8759,-5.8787,-5.8785,-5.8796,-5.8825,-5.8816,-5.8697,-5.8679,-5.8663,-5.8646,-5.8829,-5.8829,-5.894,-5.8941,-5.8942]},{"header":{"parameterUnit":"m.s-1","parameterCategory":1,"la1":30.2991,"la2":30.254,"lo1":-89.0895,"lo2":-89.0444,"dy":0.0017,"dx":0.0017,"nx":28,"ny":28,"refTime":"2024-05-12T03:00:00:Z","depth":0,"parameterNumber":3,"parameterNumberName":"V-component_of_WINDS"},"data":[0,0,0,0,0,0,0,0,0,0,0,0,0,0,0,0,0,0,0,0,0,0,0,0,0,0,0,0,0,0,0,0,0,0,0,0,0,0,0,0,0,0,0,0,0,0,0,0,0,0,0,0,0,0,0,0,0,0,2.9866,2.9866,0,2.9873,2.9873,2.9873,2.9887,2.9888,2.9888,2.9888,2.989,2.9889,2.9889,0,0,0,0,0,0,0,0,0,0,0,0,0,2.9862,2.9862,2.9866,2.9866,2.9866,2.9873,2.9873,2.9873,2.9887,2.9888,2.9888,2.9888,2.989,2.9889,2.9889,0,0,0,0,0,0,0,0,0,0,0,0,0,2.9865,2.9862,2.9866,2.9874,2.9875,2.9873,2.9873,2.9873,2.9887,2.9888,2.9888,2.9889,2.989,2.9889,2.9889,2.9878,0,0,2.9888,2.9888,0,0,0,0,0,0,0,0,2.9865,2.9866,2.9873,2.9874,2.9875,2.988,2.9872,2.9874,2.9887,2.9882,2.9888,2.9889,2.9886,2.9886,2.9886,2.9878,2.9878,2.9888,2.9888,2.9888,2.9887,0,0,0,0,0,0,0,2.9865,2.9865,2.9869,2.9873,2.9874,2.9877,2.9878,2.9873,2.9881,2.9883,2.9884,2.9885,2.9886,2.9886,2.9886,2.9878,2.9888,2.9888,2.9887,2.9887,2.9862,2.9862,0,0,0,0,0,0,2.9864,2.9865,2.9868,2.9869,2.9871,2.9876,2.9877,2.9878,2.9881,2.9883,2.9885,2.9886,2.9886,2.9886,2.9886,2.9874,2.9888,2.9887,2.9887,2.9863,2.9862,2.9861,0,0,0,0,0,0,2.9864,2.9864,2.9868,2.9867,2.9868,2.9876,2.9876,2.9878,2.9878,2.9883,2.9884,2.9883,2.9887,2.9886,2.988,2.9874,2.9887,2.9887,2.9863,2.9862,2.9862,2.9848,0,0,0,0,0,0,2.9864,2.9864,2.9861,2.9867,2.9868,2.9863,2.9876,2.9877,2.9878,2.9879,2.9882,2.9882,2.9887,2.9881,2.988,2.9874,2.9886,2.9864,2.9863,2.9862,2.9849,2.9847,2.9845,0,0,0,0,0,2.9864,2.9855,2.986,2.9861,2.9864,2.9863,2.9863,2.9871,2.9877,2.9873,2.9877,2.9882,2.9875,2.988,2.9879,2.9873,2.9864,2.9863,2.9862,2.985,2.9848,2.9845,0,0,0,0,0,0,2.9845,2.9856,2.9862,2.9856,2.9859,2.9866,2.9861,2.9867,2.9867,2.9868,2.9876,2.9876,2.9869,2.987,2.9876,2.9862,2.987,2.9869,2.9862,2.9859,2.9857,2.9857,2.9886,0,0,0,0,0,2.984,2.984,2.9849,2.9843,2.9844,2.9852,2.9852,2.9858,2.986,2.9861,2.9864,2.9865,2.9863,2.9861,2.986,2.985,2.9851,2.9845,2.9843,2.9842,2.984,2.9836,2.9833,2.9858,2.9858,2.9858,0,0,2.983,2.9836,2.9835,2.9839,2.9842,2.9841,2.9853,2.985,2.9849,2.986,2.9855,2.9858,2.9859,2.9852,2.9848,2.9852,2.9834,2.984,2.9839,2.9838,2.9834,2.9832,2.983,2.9858,2.9858,2.9858,0,0,2.9811,2.9816,2.9811,2.9815,2.9821,2.9826,2.9826,2.9832,2.9835,2.9831,2.9839,2.9837,2.9833,2.9835,2.9835,2.9819,2.9824,2.9818,2.9807,2.9803,2.9801,2.98,2.9794,2.9792,2.9817,2.9817,2.9817,0,2.9797,2.9797,2.9808,2.9806,2.9807,2.982,2.9815,2.9817,2.9821,2.9821,2.9827,2.9824,2.9825,2.9819,2.9815,2.9815,2.9813,2.9817,2.9801,2.9799,2.9798,2.9793,2.979,2.9816,2.9816,2.9816,2.9816,0,2.978,2.9779,2.9775,2.9781,2.9782,2.9779,2.9788,2.9788,2.9794,2.9799,2.9795,2.9798,2.9798,2.9797,2.9802,2.9791,2.9794,2.98,2.9808,2.9795,2.979,2.9788,2.9815,2.9815,2.9815,2.9816,0,0,2.9746,2.9761,2.9759,2.9763,2.9771,2.977,2.9768,2.977,2.9769,2.9772,2.9769,2.9768,2.9774,2.9774,2.978,2.9776,2.9764,2.9783,2.9783,2.9779,2.9753,2.9748,2.9745,2.9768,2.9768,2.9767,2.9752,0,2.9728,2.9726,2.9737,2.9731,2.9731,2.9745,2.9742,2.9747,2.9752,2.9752,2.9757,2.9755,2.9764,2.9764,2.9762,2.9766,2.9758,2.9767,2.9764,2.9764,2.9763,2.9743,2.9737,2.9722,2.9751,2.975,2.975,0,2.9707,2.9711,2.9706,2.9717,2.9717,2.9715,2.9719,2.9719,2.9724,2.9728,2.973,2.9737,2.9734,2.9744,2.974,2.9745,2.9745,2.9747,2.9747,2.9746,2.9756,2.9741,2.9718,2.9715,2.9747,2.9747,2.9748,0,2.9683,2.9688,2.9686,2.9689,2.97,2.9699,2.9703,2.9709,2.9711,2.9713,2.9714,2.9716,2.9717,2.9717,2.9725,2.9731,2.972,2.9729,2.9722,2.9722,2.9718,2.9718,2.9695,2.9719,2.9719,2.9719,2.972,0,2.9662,2.9658,2.9676,2.9674,2.9671,2.9684,2.9679,2.9685,2.9691,2.969,2.9701,2.97,2.971,2.971,2.9716,2.9712,2.9712,2.9714,2.9716,2.9713,2.9712,2.9712,2.9713,2.9719,2.9719,2.9719,2.9719,0,2.9634,2.9646,2.9645,2.9657,2.966,2.9657,2.9667,2.9666,2.9673,2.9672,2.9673,2.9683,2.9684,2.9692,2.9693,2.9697,2.9691,2.9694,2.9689,2.969,2.9683,2.9683,2.9657,2.9654,2.9681,2.9681,2.9681,0,2.9619,2.9617,2.963,2.9632,2.9637,2.9639,2.9641,2.9653,2.9655,2.9662,2.966,2.9662,2.9664,2.9664,2.9671,2.9673,2.9676,2.9667,2.9676,2.9674,2.9675,2.9675,2.9675,2.9664,2.9664,2.9664,2.9663,0,2.9591,2.9598,2.9602,2.9608,2.9611,2.9616,2.9621,2.9622,2.9636,2.9637,2.9639,2.9641,2.9644,2.9646,2.9649,2.9652,2.966,2.9661,2.9659,2.9656,2.9653,2.9655,2.9683,2.9661,2.9661,2.9661,2.9661,2.9662,2.9569,2.9568,2.9579,2.9583,2.9589,2.9594,2.9595,2.9603,2.9606,2.9611,2.9618,2.9619,2.9625,2.9631,2.9634,2.9634,2.9639,2.9636,2.9636,2.9635,2.9633,2.9654,2.9635,2.9635,2.9635,2.9635,2.9635,0,2.9542,2.955,2.9554,2.9563,2.9566,2.9576,2.9583,2.9585,2.9586,2.9593,2.9596,2.9598,2.9601,2.9609,2.9612,2.961,2.9614,2.9611,2.961,2.9611,2.9629,2.963,2.9608,2.9608,2.9608,2.9608,2.9608,2.9608,2.9528,2.9528,2.9536,2.9539,2.9547,2.955,2.9553,2.9558,2.9564,2.9567,2.957,2.9576,2.9583,2.9587,2.959,2.9592,2.9592,2.9587,2.9591,2.9607,2.961,2.9612,2.9613,2.9588,2.9588,2.9573,2.9572,2.9572]}]]